sat.trackr.live / text

‹ back to catalog

UNKNOWN

NORAD 85210

UNKNOWN UNKNOWN UNKNOWN

§ Identity

Operator
Country
Launch date
Launch site
Launch vehicle
Mass (kg)
RCS (m²)

External: N2YO · Heavens-Above

§ Orbital elements

Epoch: 2026-05-24T04:25:51.407328Z

Period
104.97 min
Inclination
99.8719°
Eccentricity
0.0214182
Mean motion
13.71755196 rev/d
Perigee alt
835.4 km
Apogee alt
1,151.2 km
Semi-major
7,371.4 km
B*
8.5985e-4
RAAN
294.7263°
Arg perigee
258.2789°
Mean anomaly
284.3402°
Rev number
62,442

§ Raw data

UNKNOWN1 85210U          26144.18462277  .00000866  00000+0  85985-3 0  99972 85210  99.8719 294.7263 0214182 258.2789 284.3402 13.71755196624429

JSON: /api/v1/satellites/85210 · /tle

For live sub-satellite position, see the globe view (requires WebGL).

§ Visibility from observer

Set your observer location to see the next 7 days of passes ≥ 10°. The values pass through the URL so the page stays shareable.

No JS? Fill the form by hand. The geolocation button needs JavaScript.